| time (UTC) | temp C | wind direction | speed KPH | gust KPH | rain 1hr cm | rain 24hr cm | rain mn cm | humidity % | barometer mb |
| 20260505201005 | 26 | 225 | 14.5 | 38.6 | 0.00 | 0.03 | 0.03 | 38 | 1007.9 |
| 20260505195004 | 26 | 226 | 14.5 | 41.8 | 0.00 | 0.03 | 0.03 | 38 | 1007.8 |
| 20260505192004 | 26 | 181 | 16.1 | 35.4 | 0.00 | 0.03 | 0.03 | 40 | 1008.1 |
| 20260505191005 | 26 | 186 | 22.5 | 40.2 | 0.00 | 0.03 | 0.03 | 40 | 1008.2 |
| 20260505185005 | 26 | 205 | 19.3 | 41.8 | 0.00 | 0.03 | 0.03 | 39 | 1008.3 |
| 20260505184005 | 26 | 229 | 11.3 | 32.2 | 0.00 | 0.03 | 0.03 | 40 | 1008.4 |
| 20260505183004 | 26 | 238 | 16.1 | 32.2 | 0.00 | 0.03 | 0.03 | 39 | 1008.6 |
| 20260505182005 | 26 | 212 | 14.5 | 32.2 | 0.00 | 0.03 | 0.03 | 41 | 1008.5 |
| 20260505180005 | 26 | 207 | 9.7 | 25.7 | 0.00 | 0.03 | 0.03 | 40 | 1008.7 |
| 20260505175005 | 26 | 196 | 16.1 | 29.0 | 0.00 | 0.03 | 0.03 | 37 | 1008.9 |
| 20260505174004 | 26 | 206 | 9.7 | 38.6 | 0.00 | 0.03 | 0.03 | 37 | 1009.0 |
| 20260505173005 | 26 | 201 | 16.1 | 40.2 | 0.00 | 0.03 | 0.03 | 40 | 1009.1 |
| 20260505171004 | 26 | 249 | 12.9 | 32.2 | 0.00 | 0.03 | 0.03 | 42 | 1009.2 |
| 20260505170004 | 25 | 241 | 12.9 | 27.4 | 0.00 | 0.03 | 0.03 | 45 | 1009.3 |
| 20260505165005 | 25 | 221 | 19.3 | 32.2 | 0.00 | 0.03 | 0.03 | 43 | 1009.5 |
| 20260505164005 | 25 | 207 | 14.5 | 29.0 | 0.00 | 0.03 | 0.03 | 43 | 1009.6 |
| 20260505163004 | 25 | 234 | 11.3 | 32.2 | 0.00 | 0.03 | 0.03 | 47 | 1009.9 |
| 20260505162004 | 25 | 188 | 11.3 | 32.2 | 0.00 | 0.03 | 0.03 | 44 | 1009.8 |
| 20260505161005 | 25 | 249 | 19.3 | 32.2 | 0.00 | 0.03 | 0.03 | 46 | 1009.8 |
| 20260505153005 | 24 | 245 | 14.5 | 32.2 | 0.00 | 0.03 | 0.03 | 46 | 1010.2 |
| 20260505151005 | 24 | 246 | 4.8 | 19.3 | 0.00 | 0.03 | 0.03 | 50 | 1010.4 |
| 20260505125004 | 17 | 157 | 9.7 | 16.1 | 0.00 | 0.03 | 0.03 | 69 | 1011.2 |
| 20260505123004 | 17 | 178 | 6.4 | 19.3 | 0.00 | 0.03 | 0.03 | 71 | 1010.8 |
| 20260505122008 | 16 | 181 | 4.8 | 19.3 | 0.00 | 0.03 | 0.03 | 73 | 1010.8 |
| 20260505121004 | 16 | 139 | 3.2 | 12.9 | 0.00 | 0.03 | 0.03 | 73 | 1010.9 |
| 20260505120005 | 15 | 171 | 3.2 | 12.9 | 0.00 | 0.03 | 0.03 | 77 | 1010.9 |
| 20260505115004 | 15 | 190 | 3.2 | 14.5 | 0.00 | 0.03 | 0.03 | 78 | 1010.8 |
| 20260505113004 | 13 | 151 | 4.8 | 19.3 | 0.00 | 0.03 | 0.03 | 84 | 1010.7 |
| 20260505112004 | 12 | 173 | 9.7 | 19.3 | 0.00 | 0.03 | 0.03 | 87 | 1010.5 |
| 20260505111004 | 12 | 163 | 4.8 | 19.3 | 0.00 | 0.03 | 0.03 | 91 | 1010.4 |
| 20260505101004 | 10 | 151 | 3.2 | 9.7 | 0.00 | 0.03 | 0.03 | 92 | 1010.3 |
| 20260505100004 | 11 | 146 | 3.2 | 4.8 | 0.03 | 0.03 | 0.03 | 92 | 1010.2 |
| 20260505095004 | 11 | 146 | 4.8 | 4.8 | 0.03 | 0.03 | 0.03 | 91 | 1010.1 |
| 20260505094003 | 11 | 154 | 3.2 | 4.8 | 0.03 | 0.03 | 0.03 | 90 | 1010.2 |
| 20260505093004 | 11 | 153 | 1.6 | 4.8 | 0.03 | 0.03 | 0.03 | 89 | 1010.3 |
| 20260505092004 | 12 | 170 | 4.8 | 8.0 | 0.03 | 0.03 | 0.03 | 88 | 1010.3 |
| 20260505091004 | 12 | 94 | 4.8 | 8.0 | 0.03 | 0.03 | 0.03 | 86 | 1010.2 |
| 20260505085004 | 13 | 168 | 1.6 | 4.8 | 0.00 | 0.00 | 0.00 | 78 | 1010.4 |
| 20260505083004 | 14 | 200 | 1.6 | 4.8 | 0.00 | 0.00 | 0.00 | 69 | 1010.2 |
| 20260505082004 | 14 | 221 | 1.6 | 19.3 | 0.00 | 0.00 | 0.00 | 68 | 1010.1 |
| 20260505081004 | 14 | 217 | 8.0 | 19.3 | 0.00 | 0.00 | 0.00 | 67 | 1009.7 |
| 20260505080004 | 15 | 166 | 12.9 | 22.5 | 0.00 | 0.00 | 0.00 | 66 | 1009.6 |
| 20260505075004 | 15 | 154 | 8.0 | 20.9 | 0.00 | 0.00 | 0.00 | 66 | 1009.6 |
| 20260505074004 | 14 | 178 | 9.7 | 19.3 | 0.00 | 0.00 | 0.00 | 66 | 1009.7 |
| 20260505073004 | 14 | 192 | 3.2 | 11.3 | 0.00 | 0.00 | 0.00 | 66 | 1009.7 |
| 20260505071003 | 14 | 207 | 3.2 | 11.3 | 0.00 | 0.00 | 0.00 | 65 | 1009.8 |
| 20260505070004 | 14 | 165 | 4.8 | 14.5 | 0.00 | 0.00 | 0.00 | 65 | 1009.8 |
| 20260505065004 | 14 | 107 | 1.6 | 4.8 | 0.00 | 0.00 | 0.00 | 65 | 1009.8 |
| 20260505064004 | 14 | 180 | 4.8 | 11.3 | 0.00 | 0.00 | 0.00 | 64 | 1009.8 |
| 20260505062006 | 14 | 188 | 3.2 | 9.7 | 0.00 | 0.00 | 0.00 | 62 | 1010.0 |
| 20260505061008 | 14 | 196 | 6.4 | 11.3 | 0.00 | 0.00 | 0.00 | 62 | 1010.0 |
| 20260505060005 | 14 | 234 | 1.6 | 9.7 | 0.00 | 0.00 | 0.00 | 61 | 1010.1 |
| 20260505055005 | 14 | 245 | 3.2 | 11.3 | 0.00 | 0.00 | 0.00 | 61 | 1009.9 |
| 20260505054006 | 14 | 189 | 6.4 | 19.3 | 0.00 | 0.00 | 0.00 | 60 | 1009.9 |
| 20260505053005 | 14 | 171 | 8.0 | 24.1 | 0.00 | 0.00 | 0.00 | 60 | 1009.7 |
| 20260505052006 | 15 | 174 | 11.3 | 32.2 | 0.00 | 0.00 | 0.00 | 59 | 1009.7 |
| 20260505051005 | 15 | 171 | 14.5 | 32.2 | 0.00 | 0.00 | 0.00 | 59 | 1009.6 |
| 20260505041005 | 15 | 172 | 11.3 | 25.7 | 0.00 | 0.00 | 0.00 | 55 | 1009.7 |
| 20260505040005 | 16 | 166 | 11.3 | 27.4 | 0.00 | 0.00 | 0.00 | 54 | 1009.6 |
| 20260505035006 | 16 | 171 | 14.5 | 29.0 | 0.00 | 0.00 | 0.00 | 53 | 1009.4 |
| 20260505034006 | 16 | 173 | 8.0 | 25.7 | 0.00 | 0.00 | 0.00 | 53 | 1009.4 |
| 20260505033005 | 16 | 161 | 11.3 | 29.0 | 0.00 | 0.00 | 0.00 | 52 | 1009.5 |
| 20260505032005 | 16 | 162 | 14.5 | 25.7 | 0.00 | 0.00 | 0.00 | 52 | 1009.5 |
| 20260505031006 | 16 | 171 | 9.7 | 20.9 | 0.00 | 0.00 | 0.00 | 51 | 1009.6 |
| 20260505030005 | 16 | 170 | 12.9 | 20.9 | 0.00 | 0.00 | 0.00 | 51 | 1009.7 |
| 20260505025005 | 16 | 162 | 8.0 | 16.1 | 0.00 | 0.00 | 0.00 | 51 | 1009.6 |
| 20260505024005 | 16 | 157 | 9.7 | 20.9 | 0.00 | 0.00 | 0.00 | 51 | 1009.6 |
| 20260505023005 | 16 | 166 | 11.3 | 20.9 | 0.00 | 0.00 | 0.00 | 51 | 1009.7 |
| 20260505022005 | 17 | 173 | 11.3 | 24.1 | 0.00 | 0.00 | 0.00 | 51 | 1009.9 |
| 20260505021005 | 17 | 161 | 11.3 | 22.5 | 0.00 | 0.00 | 0.00 | 50 | 1010.0 |
| 20260505020006 | 17 | 162 | 9.7 | 27.4 | 0.00 | 0.00 | 0.00 | 50 | 1010.0 |
| 20260505015006 | 17 | 155 | 8.0 | 19.3 | 0.00 | 0.00 | 0.00 | 50 | 1010.0 |
| 20260505014005 | 17 | 165 | 8.0 | 19.3 | 0.00 | 0.00 | 0.00 | 50 | 1009.9 |
| 20260505013005 | 17 | 162 | 11.3 | 19.3 | 0.00 | 0.00 | 0.00 | 50 | 1009.8 |
| 20260505012005 | 17 | 169 | 9.7 | 24.1 | 0.00 | 0.00 | 0.00 | 50 | 1009.8 |
| 20260505011005 | 17 | 154 | 8.0 | 20.9 | 0.00 | 0.00 | 0.00 | 49 | 1009.7 |
| 20260505010006 | 17 | 171 | 8.0 | 19.3 | 0.00 | 0.00 | 0.00 | 49 | 1009.6 |
| 20260505005005 | 17 | 168 | 9.7 | 25.7 | 0.00 | 0.00 | 0.00 | 48 | 1009.6 |
| 20260505004005 | 17 | 171 | 9.7 | 19.3 | 0.00 | 0.00 | 0.00 | 47 | 1009.6 |
| 20260505003005 | 17 | 164 | 9.7 | 20.9 | 0.00 | 0.00 | 0.00 | 48 | 1009.5 |
| 20260505002006 | 17 | 188 | 8.0 | 16.1 | 0.00 | 0.00 | 0.00 | 47 | 1009.4 |
| 20260505001005 | 18 | 174 | 8.0 | 19.3 | 0.00 | 0.00 | 0.00 | 46 | 1009.4 |
| 20260505000005 | 18 | 168 | 8.0 | 19.3 | 0.00 | 0.00 | 0.00 | 45 | 1009.3 |
| 20260504234005 | 18 | 185 | 8.0 | 20.9 | 0.00 | 0.00 | 0.00 | 45 | 1009.2 |
| 20260504233005 | 19 | 186 | 11.3 | 27.4 | 0.00 | 0.00 | 0.00 | 43 | 1009.1 |
| 20260504232005 | 19 | 185 | 14.5 | 24.1 | 0.00 | 0.00 | 0.00 | 43 | 1009.0 |
| 20260504231005 | 20 | 171 | 14.5 | 29.0 | 0.00 | 0.00 | 0.00 | 42 | 1009.0 |
| 20260504230005 | 20 | 195 | 17.7 | 29.0 | 0.00 | 0.00 | 0.00 | 42 | 1008.8 |
| 20260504225005 | 20 | 177 | 17.7 | 27.4 | 0.00 | 0.00 | 0.00 | 42 | 1008.8 |
| 20260504224005 | 20 | 172 | 6.4 | 20.9 | 0.00 | 0.00 | 0.00 | 43 | 1008.8 |
| 20260504222005 | 21 | 178 | 11.3 | 27.4 | 0.00 | 0.00 | 0.00 | 43 | 1008.9 |
| 20260504221005 | 21 | 199 | 8.0 | 24.1 | 0.00 | 0.00 | 0.00 | 42 | 1009.0 |
| 20260504215005 | 22 | 224 | 11.3 | 25.7 | 0.00 | 0.00 | 0.00 | 36 | 1008.8 |
| 20260504214005 | 22 | 243 | 11.3 | 24.1 | 0.00 | 0.00 | 0.00 | 36 | 1008.9 |
| 20260504213005 | 22 | 185 | 11.3 | 19.3 | 0.00 | 0.00 | 0.00 | 37 | 1008.9 |
| 20260504212005 | 22 | 207 | 8.0 | 19.3 | 0.00 | 0.00 | 0.00 | 36 | 1009.0 |
| 20260504211005 | 21 | 203 | 6.4 | 24.1 | 0.00 | 0.00 | 0.00 | 39 | 1009.0 |
| 20260504210005 | 21 | 222 | 4.8 | 27.4 | 0.00 | 0.00 | 0.00 | 40 | 1009.1 |
| 20260504204005 | 21 | 257 | 9.7 | 27.4 | 0.00 | 0.00 | 0.00 | 37 | 1009.2 |
| 20260504203004 | 21 | 202 | 11.3 | 29.0 | 0.00 | 0.00 | 0.00 | 39 | 1009.3 |
| 20260504202005 | 21 | 237 | 12.9 | 32.2 | 0.00 | 0.00 | 0.00 | 38 | 1009.4 |